Miscellaneous Local Product
Issued by NWS North Platte, NE

Home | Current Version | Previous Version | Graphics & Text | Print | Product List | Glossary On
Versions: 1 2 3 4 5 6 7 8 9 10 11 12 13 14 15 16 17 18 19 20 21 22 23 24 25 26 27 28 29 30 31 32 33 34 35 36 37 38 39 40 41 42 43 44 45 46 47 48 49 50
000
AXUS43 KLBF 221410
MISLBF


WESTERN AND NORTH CENTRAL NEBRASKA HOURLY WEATHER ROUNDUP
NATIONAL WEATHER SERVICE NORTH PLATTE NE
900 AM CDT WED OCT 22 2014

***STATIONS NOT REPORTING VARIABLES SUCH AS SKY/WEATHER OR
PRESSURE ARE PROVIDED BY THE NEBRASKA DEPARTMENT OF
ROADS...RAWS...AND APRS NETWORKS...AND ARE NOT UNDER
NATIONAL WEATHER SERVICE QUALITY CONTROL***

...OBSERVATIONS IN AND NEAR THE EASTERN PANHANDLE OF NEBRASKA...

CITY           SKY/WX    TMP DP  RH WIND       PRES   REMARKS
PINE RIDGE     CLOUDY    53  48  83 CALM      29.98R
CHADRON        CLOUDY    50  34  54 W14       30.00R
ALLIANCE       CLOUDY    45  44  97 W5        30.00R
SIDNEY         PTCLDY    47  43  86 NW8       30.03R
WHITECLAY        N/A     50  38  62 CALM        N/A
RUSHVILLE        N/A     50  39  66 W12         N/A
CRESCENT LAKE    N/A     51  47  87 CALM        N/A
LISCO            N/A     49  46  88 CALM        N/A
BIG SPRINGS      N/A     52  48  86 CALM        N/A
LEWELLEN         N/A     56  53  89 CALM        N/A
$$

...OBSERVATIONS IN NORTH CENTRAL NEBRASKA...

CITY           SKY/WX    TMP DP  RH WIND       PRES   REMARKS
VALENTINE      LGT RAIN  58  48  69 NW9       29.96R
THEDFORD       CLOUDY    57  53  84 W8        29.98R
AINSWORTH      LGT RAIN  58  51  78 SW10      29.95R
O`NEILL        CLOUDY    58  55  91 S12       29.94F
ORD            CLOUDY    57  54  89 SE8       29.95S
BROKEN BOW     PTSUNNY   58  52  80 S8        29.97R
BROWNLEE         N/A     59  52  77 W3          N/A
SPRINGVIEW       N/A     59  53  80 CALM        N/A
BREWSTER         N/A     62  55  78 S9          N/A
ROSE             N/A     59  57  94 E8          N/A
NEWPORT          N/A     60  55  85 S12         N/A
SARGENT          N/A     55  53  93 CALM        N/A
COMSTOCK         N/A     60  57  89 S13         N/A
CHAMBERS         N/A     57  55  93 W5G13       N/A
$$

...OBSERVATIONS IN SOUTHWEST NEBRASKA AND FAR NORTHEAST COLORADO...

CITY           SKY/WX    TMP DP  RH WIND       PRES   REMARKS
WRAY           CLOUDY    57  47  71 NE6       30.00S
HOLYOKE        FAIR      55  48  76 CALM      30.01R
IMPERIAL       CLOUDY    58  48  69 N12       30.00R
OGALLALA       CLOUDY    54  51  90 N3        29.98S
NORTH PLATTE   CLOUDY    54  49  83 CALM      29.97R
MCCOOK         MOCLDY    58  50  75 SW6       29.97R
LEXINGTON      MOSUNNY   58  52  80 SW8       29.98R
PAXTON           N/A     54  50  86 CALM        N/A
SUTHERLAND       N/A     51  49  92 CALM        N/A
BRADY            N/A     55  49  81 CALM        N/A
GOTHENBURG       N/A     58  48  70 S3          N/A
CALLAWAY         N/A     51  48  91 S7          N/A
$$

...SOME WEATHER OBSERVATIONS FROM AROUND THE REGION...

CITY           SKY/WX    TMP DP  RH WIND       PRES   REMARKS
DENVER         MOCLDY    47  42  83 S9        30.08R
LARAMIE        PTCLDY    35  32  88 E3        30.13S
CHEYENNE       CLOUDY    46  36  68 W7        30.09R
SCOTTSBLUFF    CLOUDY    49  45  86 W7        30.03R
RAPID CITY     CLOUDY    52  35  52 N21G29    29.95R
PIERRE         CLOUDY    60  45  57 NW23      29.84R
WINNER         MOCLDY    64  48  56 W13       29.92R
SIOUX FALLS    MOSUNNY   54  44  69 S16       29.99S
OMAHA          MOSUNNY   55  44  66 SE17      30.11S
GRAND ISLAND   PTSUNNY   59  54  83 S15       30.01S
KANSAS CITY    PTSUNNY   54  46  74 SE14      30.19R
WICHITA        MOSUNNY   61  57  87 SE10      30.12R
HAYS           MOSUNNY   55  48  76 S6        30.03R
LIBERAL        PTSUNNY   61  52  72 S14       30.05S
GOODLAND       CLOUDY    52  48  86 W6        30.01R
$$



USA.gov is the U.S. government's official web portal to all federal, state and local government web resources and services.